SL-8 R/B, 9023

Orbit data source: Space-Track

SL-8 R/B, 9023 is space debris in LEO originally from a launch on Thu, 15 Jul 1976 UTC launched from the Plesetsk Missile And Space Complex (PKMTR). Debris objects in space refer to the collection of defunct objects orbiting the Earth. Examples of debris include non-operational satellites, rocket bodies, and fragments generated from explosions, collisions, or faulty payload assembly.

Loading next visibility...
Identifier
9023, 1976-069B
Orbit
LEO
Country
Flag of CISCIS
Related business
Manufacturer
Omsk Av. Zav.
Mission
Spacecraft
Bus & Motor
S3, Unknown motor
Mass
1,434 kg wet, 1,434 kg dry
Launch date (UTC)
1976-07-15 (50 years ago)
Launch vehicle
Unknown
Launch site
Plesetsk Missile And Space Complex (PKMTR)
Object type
Payload
Rocket body
Debris
Shape & HBR
Unknown
Radar Cross Section
Large (>1 m²)

Expand to show TLE details & history
Last TLE update: 9 hours ago

TLE from 9 hours ago
0 SL-8 R/B
1  9023U 76069B   26164.70581252  .00000253  00000-0  86509-4 0  9993
2  9023  74.0406 152.1722 0018036 229.2856 130.6734 14.41229033617174
Epoch: 2026-06-13T16:56Z
TLE epoch observation values (Epoch: 2026-06-13T16:56:22.201Z)
Latitude
-0.00003°
Longitude
-3.93737°
Altitude
765.457 km
Speed
7.467 km/s
True Right ascension
10h 08m 41s
True Declination
0° 00' 00"
Sunlit
Object was in daylight at epoch
Visualization orbit readout
Latitude
Unknown
Longitude
Unknown
Altitude
Unknown
Speed
Unknown
Apparent Right ascension
Unknown
Apparent Declination
Unknown
Sunlit
N/A
Visualization observer readout
Local Sidereal Time
11:55:23
Azimuth
Unknown
Elevation
Unknown
Doppler factor
Unknown
Orbital elements
Apogee altitude
764.918 km
Perigee altitude
739.198 km
Semi-major axis
7,130.195 km
Eccentricity
0.0018
Inclination
74.0406°
RAAN
152.1722°
Arg. of periapsis
229.2856°
True anomaly
130.82992°
Mean anomaly
130.6734°
Eccentric anomaly
130.75168°
Mean motion
3.60488 °/min
Orbital period
99.86 mins
BSTAR
0.000086509
Loading maneuver chart data...
Computing Atmospheric mass density...
Loading historical data...
Loading historical data...
Loading historical data...
Loading historical data...
Loading historical data...
Loading historical data...
Loading historical data...
Other satellites on launch #69 in the year 1976 (1976-07-15 UTC)

Documentation

Showing up to 5 results
|